FW5669 Weather Reports


time (UTC)temp
C
wind
direction
speed
KPH
gust
KPH
rain 1hr
cm
rain 24hr
cm
rain mn
cm
humidity
%
barometer
mb
20260901071503 13 55 0.0 8.0 0.00 0.00 0.00 78 1014.0
20260901070003 13 96 3.2 6.4 0.00 0.00 0.00 77 1013.9
20260901064504 14 100 3.2 8.0 0.00 0.00 0.00 76 1013.8
20260901063010 14 70 1.6 6.4 0.00 0.00 0.00 74 1013.7
20260901061503 15 68 1.6 8.0 0.00 0.00 0.00 74 1013.5
20260901060003 15 106 1.6 12.9 0.00 0.00 0.00 72 1013.5
20260901054502 15 73 3.2 11.3 0.00 0.00 0.00 72 1013.4
20260901053003 15 85 1.6 11.3 0.00 0.00 0.00 71 1013.5
20260901051505 16 57 1.6 9.7 0.00 0.00 0.00 71 1013.5
20260901050004 16 43 1.6 9.7 0.00 0.00 0.00 69 1013.5
20260901044505 16 44 3.2 11.3 0.00 0.00 0.00 69 1013.4
20260901043003 16 82 1.6 9.7 0.00 0.00 0.00 69 1013.3
20260901041502 17 56 1.6 9.7 0.00 0.00 0.00 68 1013.1
20260901040002 17 46 1.6 4.8 0.00 0.00 0.00 67 1013.1
20260901034502 17 52 0.0 4.8 0.00 0.00 0.00 65 1012.9
20260901033008 18 16 1.6 9.7 0.00 0.00 0.00 63 1012.7
20260901031502 18 115 0.0 6.4 0.00 0.00 0.00 61 1012.4
20260901030003 19 24 0.0 3.2 0.00 0.00 0.00 58 1012.4
20260901024502 20 148 1.6 8.0 0.00 0.00 0.00 56 1012.2
20260901023004 20 158 0.0 4.8 0.00 0.00 0.00 55 1012.2
20260901021505 21 162 0.0 4.8 0.00 0.00 0.00 53 1011.9
20260901020004 22 172 1.6 4.8 0.00 0.00 0.00 52 1011.8
20260901014506 22 160 1.6 4.8 0.00 0.00 0.00 49 1011.8
20260901013003 23 110 1.6 3.2 0.00 0.00 0.00 46 1011.9
20260901011502 23 21 0.0 4.8 0.00 0.00 0.00 45 1011.7
20260901010002 24 33 1.6 6.4 0.00 0.00 0.00 44 1011.8
20260901004502 24 122 1.6 4.8 0.00 0.00 0.00 42 1011.8
20260901003002 25 173 1.6 4.8 0.00 0.00 0.00 41 1011.9
20260901001503 25 102 1.6 6.4 0.00 0.00 0.00 40 1011.8
20260901000003 25 134 1.6 8.0 0.00 0.00 0.00 38 1012.0
20260831234503 25 154 1.6 6.4 0.00 0.00 0.00 38 1011.8
20260831233002 25 87 1.6 6.4 0.00 0.00 0.00 38 1012.2
20260831231502 25 172 1.6 9.7 0.00 0.00 0.00 38 1012.4
20260831230003 25 85 3.2 11.3 0.00 0.00 0.00 36 1012.5
20260831224504 25 201 1.6 8.0 0.00 0.00 0.00 38 1012.6
20260831223004 26 185 3.2 9.7 0.00 0.00 0.00 36 1012.7
20260831221504 26 183 3.2 8.0 0.00 0.00 0.00 36 1012.8
20260831220002 26 113 3.2 9.7 0.00 0.00 0.00 37 1012.7
20260831214502 25 179 3.2 8.0 0.00 0.00 0.00 38 1012.7
20260831213004 25 190 3.2 9.7 0.00 0.00 0.00 37 1012.8
20260831211503 25 192 1.6 8.0 0.00 0.00 0.00 39 1012.9
20260831210100 25 89 3.2 8.0 0.00 0.00 0.00 38 1012.9
20260831210002 25 94 3.2 8.0 0.00 0.00 0.00 39 1012.9
20260831204502 25 150 3.2 6.4 0.00 0.00 0.00 40 1013.1
20260831203002 25 192 3.2 6.4 0.00 0.00 0.00 41 1013.2
20260831201502 25 137 1.6 6.4 0.00 0.00 0.00 42 1013.1
20260831200007 25 185 3.2 8.0 0.00 0.00 0.00 43 1013.1
20260831194502 24 204 1.6 6.4 0.00 0.00 0.00 44 1013.3
20260831193004 23 204 1.6 11.3 0.00 0.00 0.00 45 1013.3
20260831191503 23 158 1.6 6.4 0.00 0.00 0.00 45 1013.3
20260831190002 24 193 3.2 6.4 0.00 0.00 0.00 45 1013.3
20260831184602 23 159 3.2 8.0 0.00 0.00 0.00 46 1013.2
20260831183003 23 180 3.2 8.0 0.00 0.00 0.00 47 1013.3
20260831181501 23 147 1.6 8.0 0.00 0.00 0.00 46 1013.1
20260831180006 23 116 0.0 9.7 0.00 0.00 0.00 46 1013.1
20260831174502 23 162 1.6 4.8 0.00 0.00 0.00 46 1013.0
20260831173003 23 251 0.0 6.4 0.00 0.00 0.00 47 1013.0
20260831171502 23 160 1.6 6.4 0.00 0.00 0.00 48 1013.1
20260831170004 23 192 3.2 4.8 0.00 0.00 0.00 45 1013.0
20260831164603 23 17 0.0 6.4 0.00 0.00 0.00 40 1012.9
20260831164502 23 16 1.6 6.4 0.00 0.00 0.00 40 1013.0
20260831163002 22 168 0.0 3.2 0.00 0.00 0.00 42 1012.9
20260831161608 22 209 0.0 4.8 0.00 0.00 0.00 45 1012.9
20260831160104 21 31 1.6 4.8 0.00 0.00 0.00 45 1013.0
20260831160002 21 35 1.6 4.8 0.00 0.00 0.00 46 1013.0
20260831154503 20 59 1.6 4.8 0.00 0.00 0.00 49 1013.0
20260831153003 19 44 1.6 4.8 0.00 0.00 0.00 52 1013.0
20260831151502 18 66 1.6 3.2 0.00 0.00 0.00 56 1013.1
20260831150002 16 58 0.0 3.2 0.00 0.00 0.00 60 1013.0
20260831144600 15 29 0.0 3.2 0.00 0.00 0.00 64 1013.0
20260831143119 15 312 0.0 1.6 0.00 0.00 0.00 65 1012.9
20260831141608 14 312 0.0 1.6 0.00 0.00 0.00 65 1012.9
20260831140005 14 312 0.0 3.2 0.00 0.00 0.00 65 1012.7
20260831134501 13 306 0.0 3.2 0.00 0.00 0.00 66 1012.4
20260831133002 14 30 0.0 1.6 0.00 0.00 0.00 64 1011.9
20260831131500 14 29 0.0 1.6 0.00 0.00 0.00 63 1011.8
20260831130001 14 30 0.0 3.2 0.00 0.00 0.00 65 1011.7
20260831124606 14 18 0.0 1.6 0.00 0.00 0.00 65 1011.7
20260831123002 14 48 0.0 0.0 0.00 0.00 0.00 64 1011.8
20260831121502 14 51 0.0 1.6 0.00 0.00 0.00 64 1011.8
20260831120001 15 51 0.0 1.6 0.00 0.00 0.00 61 1011.8
20260831114505 15 39 0.0 0.0 0.00 0.00 0.00 61 1011.8
20260831113002 14 39 0.0 3.2 0.00 0.00 0.00 64 1011.9
20260831111503 13 1 0.0 0.0 0.00 0.00 0.00 66 1012.0
20260831110110 13 349 0.0 0.0 0.00 0.00 0.00 66 1012.1
20260831104602 13 349 0.0 3.2 0.00 0.00 0.00 65 1012.1
20260831101503 15 349 0.0 1.6 0.00 0.00 0.00 62 1012.1
20260831094501 16 349 0.0 1.6 0.00 0.00 0.00 57 1012.1
20260831093000 16 349 0.0 1.6 0.00 0.00 0.00 56 1012.1
20260831091501 17 349 0.0 1.6 0.00 0.00 0.00 54 1012.2
20260831090002 17 27 0.0 3.2 0.00 0.00 0.00 54 1012.2
20260831084604 17 10 0.0 1.6 0.00 0.00 0.00 53 1012.4
20260831083104 17 14 0.0 1.6 0.00 0.00 0.00 52 1012.3
20260831081603 17 28 0.0 4.8 0.00 0.00 0.00 53 1012.4
20260831080002 16 32 0.0 1.6 0.00 0.00 0.00 55 1012.4
20260831074504 16 44 0.0 1.6 0.00 0.00 0.00 56 1012.5
20260831073101 17 44 0.0 1.6 0.00 0.00 0.00 54 1012.4
20260831073004 17 44 0.0 1.6 0.00 0.00 0.00 54 1012.4